Home > Weather > Ocala > Past weeks

Flag for USA Past Weather in Ocala, Florida, USA — Yesterday and Last 2 Weeks

Now
77 °F

Passing clouds.


Feels Like: 78 °F
Forecast: 76 / 92 °F
Wind: No wind

Location: Ocala Municipal

Current Time: Jul 31, 2016 at 1:42:11 AM

Latest Report: Jul 31, 2016 at 1:15 AM


Visibility: 10 mi

Pressure: 30.06 "Hg

Humidity: 89%

Dew Point: 73 °F

Location of OcalaLocation

Past Weather in Ocala — Graph

°F

Ocala Temperature Yesterday

Maximum temperature yesterday: 90 °F (at 11:50 AM)
Minimum temperature yesterday: 73 °F (at 3:35 AM)
Average temperature yesterday: 79 °F

High & Low Weather Summary for the Past Weeks

 TemperatureHumidityPressure
High99 °F (Jul 17, 3:50 PM)94% (Jul 18, 6:35 AM)30.25 "Hg (Jul 18, 6:35 AM)
Low70 °F (Jul 23, 5:15 AM)27% (Jul 24, 5:50 PM)29.97 "Hg (Jul 23, 6:50 PM)
Average79 °F76%30.09 "Hg
* Reported Jul 16 12:15 AM — Jul 31 12:35 AM, Ocala, Weather by CustomWeather, © 2016

Note: Actual official high and low records may vary slightly from our data, if they occured in-between our weather recording intervals... More about our weather records

Advertising

Ocala Weather History for the Previous 24 Hours

Scroll right to see more
 ConditionsComfort  
Time TempWeatherWind HumidityBarometerVisibility
12:35 AM
Sun, Jul 31
77 °FClear.No wind89%30.07 "Hg10 mi
12:15 AM77 °FClear.No wind89%30.07 "Hg10 mi
11:55 PM
Sat, Jul 30
79 °FClear.No wind84%30.08 "Hg10 mi
11:35 PM79 °FPassing clouds.No wind84%30.08 "Hg10 mi
11:15 PM79 °FPassing clouds.No wind84%30.08 "Hg9 mi
10:55 PM79 °FPassing clouds.No wind84%30.08 "Hg10 mi
10:35 PM79 °FPassing clouds.3 mph89%30.08 "Hg10 mi
10:15 PM81 °FClear.7 mph84%30.07 "Hg10 mi
9:55 PM81 °FClear.3 mph84%30.07 "Hg10 mi
9:35 PM81 °FClear.No wind84%30.06 "Hg10 mi
9:15 PM81 °FSunny.No wind84%30.05 "Hg10 mi
8:55 PM82 °FSunny.No wind79%30.05 "Hg10 mi
8:35 PM82 °FSunny.No wind79%30.04 "Hg10 mi
8:15 PM82 °FSunny.No wind79%30.03 "Hg10 mi
7:55 PM84 °FSunny.No wind74%30.03 "Hg10 mi
6:50 PM86 °FSunny.No wind70%30.01 "Hg10 mi
5:50 PM88 °FScattered clouds.No wind62%30.01 "Hg10 mi
4:50 PM88 °FScattered clouds.No wind62%30.02 "Hg10 mi
3:50 PM86 °FScattered clouds.8 mph70%30.03 "Hg10 mi
2:50 PM82 °FScattered clouds.No wind79%30.07 "Hg10 mi
1:50 PM79 °FPartly sunny.No wind84%30.07 "Hg10 mi
1:00 PM82 °FThunderstorms. Partly sunny.16 mph70%30.09 "Hg2 mi
12:50 PM86 °FThunderstorms. Partly sunny.16 mph66%30.09 "Hg10 mi
11:50 AM90 °FScattered clouds.6 mph59%30.08 "Hg10 mi
10:50 AM88 °FScattered clouds.6 mph66%30.08 "Hg10 mi
9:50 AM84 °FScattered clouds.6 mph74%30.09 "Hg10 mi
8:50 AM79 °FScattered clouds.No wind84%30.08 "Hg10 mi
7:50 AM75 °FScattered clouds.No wind89%30.06 "Hg10 mi
6:50 AM73 °FClear.No wind94%30.04 "Hg10 mi
6:35 AM73 °FClear.No wind94%30.04 "Hg10 mi
6:15 AM73 °FClear.No wind89%30.03 "Hg9 mi
5:55 AM73 °FClear.No wind94%30.02 "Hg10 mi
5:35 AM73 °FClear.No wind94%30.01 "Hg10 mi
5:15 AM73 °FClear.No wind94%30.01 "Hg10 mi
4:55 AM73 °FClear.No wind94%30.01 "Hg10 mi
4:35 AM73 °FClear.No wind94%30.01 "Hg10 mi
4:15 AM73 °FClear.No wind94%30.01 "Hg10 mi
3:55 AM73 °FClear.No wind94%30.01 "Hg10 mi
3:35 AM73 °FPassing clouds.No wind94%30.02 "Hg10 mi
3:15 AM75 °FClear.No wind89%30.02 "Hg10 mi
2:55 AM75 °FClear.No wind89%30.03 "Hg10 mi
2:35 AM75 °FClear.No wind89%30.04 "Hg10 mi
2:15 AM75 °FClear.No wind89%30.04 "Hg10 mi
1:55 AM75 °FClear.No wind89%30.04 "Hg10 mi
1:35 AM75 °FClear.No wind89%30.05 "Hg10 mi
1:15 AM75 °FClear.No wind89%30.04 "Hg10 mi
Weather by CustomWeather, © 2016

See weather overviewHow to use our weather pages